Location: Nelson
(41.2830°S, 173.2830°E)
Time: 05:34:44
(UTC+12:00)

CZ-2C R/B - Pass Details

Date: 14 May 2021
Orbit: 705 x 907 km, 98.0° (Epoch: 16 June)

Event Time Altitude Azimuth Distance (km) Brightness Sun altitude
Exits shadow 18:59:04 17° 155° (SSE) 1,767 4.6 -18.8°
Maximum altitude 19:02:39 57° 80° (E) 841 2.8 -19.5°
Drops below altitude 10° 19:07:20 10° 1° (N) 2,183 5.4 -20.3°
Sets 19:09:37 0° 356° (N) 3,102 6.3 -20.8°
